Year,Month,Day,Hour,Minute,Value (Times are PST for temperature in C)
2013,07,05,00,00,15.00
2013,07,05,00,01,15.00
2013,07,05,00,02,15.00
2013,07,05,00,03,15.10
2013,07,05,00,04,15.10
2013,07,05,00,05,15.10
2013,07,05,00,06,15.20
2013,07,05,00,07,15.20
2013,07,05,00,08,15.20
2013,07,05,00,09,15.20
2013,07,05,00,10,15.20
2013,07,05,00,11,15.20
2013,07,05,00,12,15.20
2013,07,05,00,13,15.20
2013,07,05,00,14,15.20
2013,07,05,00,15,15.20
2013,07,05,00,16,15.20
2013,07,05,00,17,15.20
2013,07,05,00,18,15.10
2013,07,05,00,19,15.10
2013,07,05,00,20,15.10
2013,07,05,00,21,15.10
2013,07,05,00,22,15.00
2013,07,05,00,23,15.00
2013,07,05,00,24,15.00
2013,07,05,00,25,14.90
2013,07,05,00,26,14.90
2013,07,05,00,27,14.90
2013,07,05,00,28,14.80
2013,07,05,00,29,14.80
2013,07,05,00,30,14.80
2013,07,05,00,31,14.80
2013,07,05,00,32,14.70
2013,07,05,00,33,14.70
2013,07,05,00,34,14.70
2013,07,05,00,35,14.60
2013,07,05,00,36,14.60
2013,07,05,00,37,14.60
2013,07,05,00,38,14.60
2013,07,05,00,39,14.50
2013,07,05,00,40,14.50
2013,07,05,00,41,14.40
2013,07,05,00,42,14.40
2013,07,05,00,43,14.40
2013,07,05,00,44,14.40
2013,07,05,00,45,14.40
2013,07,05,00,46,14.30
2013,07,05,00,47,14.30
2013,07,05,00,48,14.30
2013,07,05,00,49,14.30
2013,07,05,00,50,14.30
2013,07,05,00,51,14.30
2013,07,05,00,52,14.30
2013,07,05,00,53,14.20
2013,07,05,00,54,14.20
2013,07,05,00,55,14.20
2013,07,05,00,56,14.20
2013,07,05,00,57,14.20
2013,07,05,00,58,14.20
2013,07,05,00,59,14.10
2013,07,05,01,00,14.10
2013,07,05,01,01,14.10
2013,07,05,01,02,14.10
2013,07,05,01,03,14.10
2013,07,05,01,04,14.10
2013,07,05,01,05,14.00
2013,07,05,01,06,14.00
2013,07,05,01,07,14.00
2013,07,05,01,08,13.90
2013,07,05,01,09,13.90
2013,07,05,01,10,13.90
2013,07,05,01,11,13.80
2013,07,05,01,12,13.80
2013,07,05,01,13,13.80
2013,07,05,01,14,13.70
2013,07,05,01,15,13.70
2013,07,05,01,16,13.70
2013,07,05,01,17,13.70
2013,07,05,01,18,13.60
2013,07,05,01,19,13.60
2013,07,05,01,20,13.60
2013,07,05,01,21,13.60
2013,07,05,01,22,13.50
2013,07,05,01,23,13.50
2013,07,05,01,24,13.50
2013,07,05,01,25,13.50
2013,07,05,01,26,13.50
2013,07,05,01,27,13.50
2013,07,05,01,28,13.50
2013,07,05,01,29,13.50
2013,07,05,01,30,13.50
2013,07,05,01,31,13.50
2013,07,05,01,32,13.60
2013,07,05,01,33,13.60
2013,07,05,01,34,13.60
2013,07,05,01,35,13.60
2013,07,05,01,36,13.70
2013,07,05,01,37,13.70
2013,07,05,01,38,13.70
2013,07,05,01,39,13.70
2013,07,05,01,40,13.70
2013,07,05,01,41,13.70
2013,07,05,01,42,13.70
2013,07,05,01,43,13.70
2013,07,05,01,44,13.70
2013,07,05,01,45,13.70
2013,07,05,01,46,13.70
2013,07,05,01,47,13.60
2013,07,05,01,48,13.70
2013,07,05,01,49,13.70
2013,07,05,01,50,13.70
2013,07,05,01,51,13.70
2013,07,05,01,52,13.70
2013,07,05,01,53,13.70
2013,07,05,01,54,13.60
2013,07,05,01,55,13.70
2013,07,05,01,56,13.70
2013,07,05,01,57,13.70
2013,07,05,01,58,13.70
2013,07,05,01,59,13.70
2013,07,05,02,00,13.70
2013,07,05,02,01,13.70
2013,07,05,02,02,13.70
2013,07,05,02,03,13.70
2013,07,05,02,04,13.70
2013,07,05,02,05,13.60
2013,07,05,02,06,13.60
2013,07,05,02,07,13.60
2013,07,05,02,08,13.60
2013,07,05,02,09,13.50
2013,07,05,02,10,13.50
2013,07,05,02,11,13.40
2013,07,05,02,12,13.40
2013,07,05,02,13,13.40
2013,07,05,02,14,13.30
2013,07,05,02,15,13.30
2013,07,05,02,16,13.30
2013,07,05,02,17,13.20
2013,07,05,02,18,13.20
2013,07,05,02,19,13.10
2013,07,05,02,20,13.10
2013,07,05,02,21,13.00
2013,07,05,02,22,13.00
2013,07,05,02,23,13.00
2013,07,05,02,24,12.90
2013,07,05,02,25,12.90
2013,07,05,02,26,12.90
2013,07,05,02,27,12.90
2013,07,05,02,28,12.90
2013,07,05,02,29,12.90
2013,07,05,02,30,12.90
2013,07,05,02,31,12.90
2013,07,05,02,32,12.80
2013,07,05,02,33,12.80
2013,07,05,02,34,12.80
2013,07,05,02,35,12.80
2013,07,05,02,36,12.80
2013,07,05,02,37,12.80
2013,07,05,02,38,12.70
2013,07,05,02,39,12.70
2013,07,05,02,40,12.70
2013,07,05,02,41,12.70
2013,07,05,02,42,12.70
2013,07,05,02,43,12.60
2013,07,05,02,44,12.60
2013,07,05,02,45,12.60
2013,07,05,02,46,12.50
2013,07,05,02,47,12.50
2013,07,05,02,48,12.50
2013,07,05,02,49,12.40
2013,07,05,02,50,12.40
2013,07,05,02,51,12.40
2013,07,05,02,52,12.40
2013,07,05,02,53,12.40
2013,07,05,02,54,12.40
2013,07,05,02,55,12.30
2013,07,05,02,56,12.30
2013,07,05,02,57,12.30
2013,07,05,02,58,12.30
2013,07,05,02,59,12.30
2013,07,05,03,00,12.30
2013,07,05,03,01,12.30
2013,07,05,03,02,12.30
2013,07,05,03,03,12.40
2013,07,05,03,04,12.40
2013,07,05,03,05,12.40
2013,07,05,03,06,12.40
2013,07,05,03,07,12.40
2013,07,05,03,08,12.40
2013,07,05,03,09,12.30
2013,07,05,03,10,12.30
2013,07,05,03,11,12.30
2013,07,05,03,12,12.30
2013,07,05,03,13,12.30
2013,07,05,03,14,12.30
2013,07,05,03,15,12.30
2013,07,05,03,16,12.30
2013,07,05,03,17,12.30
2013,07,05,03,18,12.30
2013,07,05,03,19,12.20
2013,07,05,03,20,12.20
2013,07,05,03,21,12.20
2013,07,05,03,22,12.20
2013,07,05,03,23,12.20
2013,07,05,03,24,12.20
2013,07,05,03,25,12.20
2013,07,05,03,26,12.20
2013,07,05,03,27,12.20
2013,07,05,03,28,12.20
2013,07,05,03,29,12.20
2013,07,05,03,30,12.20
2013,07,05,03,31,12.20
2013,07,05,03,32,12.20
2013,07,05,03,33,12.30
2013,07,05,03,34,12.30
2013,07,05,03,35,12.30
2013,07,05,03,36,12.30
2013,07,05,03,37,12.30
2013,07,05,03,38,12.30
2013,07,05,03,39,12.30
2013,07,05,03,40,12.30
2013,07,05,03,41,12.30
2013,07,05,03,42,12.30
2013,07,05,03,43,12.30
2013,07,05,03,44,12.30
2013,07,05,03,45,12.30
2013,07,05,03,46,12.30
2013,07,05,03,47,12.30
2013,07,05,03,48,12.30
2013,07,05,03,49,12.30
2013,07,05,03,50,12.30
2013,07,05,03,51,12.30
2013,07,05,03,52,12.20
2013,07,05,03,53,12.20
2013,07,05,03,54,12.20
2013,07,05,03,55,12.20
2013,07,05,03,56,12.20
2013,07,05,03,57,12.20
2013,07,05,03,58,12.20
2013,07,05,03,59,12.10
2013,07,05,04,00,12.10
2013,07,05,04,01,12.10
2013,07,05,04,02,12.10
2013,07,05,04,03,12.10
2013,07,05,04,04,12.10
2013,07,05,04,05,12.10
2013,07,05,04,06,12.10
2013,07,05,04,07,12.10
2013,07,05,04,08,12.10
2013,07,05,04,09,12.10
2013,07,05,04,10,12.10
2013,07,05,04,11,12.10
2013,07,05,04,12,12.10
2013,07,05,04,13,12.10
2013,07,05,04,14,12.10
2013,07,05,04,15,12.10
2013,07,05,04,16,12.10
2013,07,05,04,17,12.10
2013,07,05,04,18,12.10
2013,07,05,04,19,12.00
2013,07,05,04,20,12.10
2013,07,05,04,21,12.10
2013,07,05,04,22,12.10
2013,07,05,04,23,12.10
2013,07,05,04,24,12.10
2013,07,05,04,25,12.10
2013,07,05,04,26,12.10
2013,07,05,04,27,12.10
2013,07,05,04,28,12.10
2013,07,05,04,29,12.10
2013,07,05,04,30,12.10
2013,07,05,04,31,12.10
2013,07,05,04,32,12.10
2013,07,05,04,33,12.10
2013,07,05,04,34,12.10
2013,07,05,04,35,12.10
2013,07,05,04,36,12.10
2013,07,05,04,37,12.10
2013,07,05,04,38,12.10
2013,07,05,04,39,12.10
2013,07,05,04,40,12.10
2013,07,05,04,41,12.10
2013,07,05,04,42,12.10
2013,07,05,04,43,12.00
2013,07,05,04,44,12.00
2013,07,05,04,45,12.00
2013,07,05,04,46,12.00
2013,07,05,04,47,12.00
2013,07,05,04,48,12.00
2013,07,05,04,49,12.00
2013,07,05,04,50,12.00
2013,07,05,04,51,12.00
2013,07,05,04,52,12.00
2013,07,05,04,53,12.00
2013,07,05,04,54,12.00
2013,07,05,04,55,12.00
2013,07,05,04,56,12.00
2013,07,05,04,57,12.00
2013,07,05,04,58,12.00
2013,07,05,04,59,12.00
2013,07,05,05,00,11.90
2013,07,05,05,01,11.90
2013,07,05,05,02,11.90
2013,07,05,05,03,11.90
2013,07,05,05,04,11.90
2013,07,05,05,05,11.90
2013,07,05,05,06,11.90
2013,07,05,05,07,11.90
2013,07,05,05,08,11.80
2013,07,05,05,09,11.80
2013,07,05,05,10,11.80
2013,07,05,05,11,11.80
2013,07,05,05,12,11.80
2013,07,05,05,13,11.80
2013,07,05,05,14,11.70
2013,07,05,05,15,11.70
2013,07,05,05,16,11.70
2013,07,05,05,17,11.70
2013,07,05,05,18,11.70
2013,07,05,05,19,11.70
2013,07,05,05,20,11.60
2013,07,05,05,21,11.60
2013,07,05,05,22,11.60
2013,07,05,05,23,11.60
2013,07,05,05,24,11.60
2013,07,05,05,25,11.50
2013,07,05,05,26,11.50
2013,07,05,05,27,11.50
2013,07,05,05,28,11.40
2013,07,05,05,29,11.40
2013,07,05,05,30,11.40
2013,07,05,05,31,11.40
2013,07,05,05,32,11.40
2013,07,05,05,33,11.40
2013,07,05,05,34,11.30
2013,07,05,05,35,11.30
2013,07,05,05,36,11.30
2013,07,05,05,37,11.30
2013,07,05,05,38,11.30
2013,07,05,05,39,11.30
2013,07,05,05,40,11.30
2013,07,05,05,41,11.30
2013,07,05,05,42,11.30
2013,07,05,05,43,11.30
2013,07,05,05,44,11.30
2013,07,05,05,45,11.30
2013,07,05,05,46,11.30
2013,07,05,05,47,11.30
2013,07,05,05,48,11.30
2013,07,05,05,49,11.30
2013,07,05,05,50,11.40
2013,07,05,05,51,11.40
2013,07,05,05,52,11.40
2013,07,05,05,53,11.50
2013,07,05,05,54,11.50
2013,07,05,05,55,11.50
2013,07,05,05,56,11.60
2013,07,05,05,57,11.60
2013,07,05,05,58,11.60
2013,07,05,05,59,11.60
2013,07,05,06,00,11.70
2013,07,05,06,01,11.70
2013,07,05,06,02,11.70
2013,07,05,06,03,11.70
2013,07,05,06,04,11.70
2013,07,05,06,05,11.80
2013,07,05,06,06,11.80
2013,07,05,06,07,11.80
2013,07,05,06,08,11.80
2013,07,05,06,09,11.80
2013,07,05,06,10,11.80
2013,07,05,06,11,11.90
2013,07,05,06,12,11.90
2013,07,05,06,13,11.90
2013,07,05,06,14,11.90
2013,07,05,06,15,12.00
2013,07,05,06,16,12.00
2013,07,05,06,17,12.00
2013,07,05,06,18,12.10
2013,07,05,06,19,12.10
2013,07,05,06,20,12.10
2013,07,05,06,21,12.10
2013,07,05,06,22,12.10
2013,07,05,06,23,12.10
2013,07,05,06,24,12.10
2013,07,05,06,25,12.20
2013,07,05,06,26,12.20
2013,07,05,06,27,12.20
2013,07,05,06,28,12.20
2013,07,05,06,29,12.30
2013,07,05,06,30,12.30
2013,07,05,06,31,12.30
2013,07,05,06,32,12.40
2013,07,05,06,33,12.40
2013,07,05,06,34,12.50
2013,07,05,06,35,12.60
2013,07,05,06,36,12.60
2013,07,05,06,37,12.60
2013,07,05,06,38,12.70
2013,07,05,06,39,12.70
2013,07,05,06,40,12.70
2013,07,05,06,41,12.70
2013,07,05,06,42,12.80
2013,07,05,06,43,12.80
2013,07,05,06,44,12.80
2013,07,05,06,45,12.90
2013,07,05,06,46,12.90
2013,07,05,06,47,12.90
2013,07,05,06,48,12.90
2013,07,05,06,49,12.90
2013,07,05,06,50,12.90
2013,07,05,06,51,12.90
2013,07,05,06,52,12.90
2013,07,05,06,53,12.90
2013,07,05,06,54,12.90
2013,07,05,06,55,12.90
2013,07,05,06,56,13.00
2013,07,05,06,57,13.00
2013,07,05,06,58,13.10
2013,07,05,06,59,13.10
2013,07,05,07,00,13.20
2013,07,05,07,01,13.20
2013,07,05,07,02,13.30
2013,07,05,07,03,13.30
2013,07,05,07,04,13.40
2013,07,05,07,05,13.40
2013,07,05,07,06,13.40
2013,07,05,07,07,13.50
2013,07,05,07,08,13.60
2013,07,05,07,09,13.70
2013,07,05,07,10,13.70
2013,07,05,07,11,13.70
2013,07,05,07,12,13.70
2013,07,05,07,13,13.80
2013,07,05,07,14,13.80
2013,07,05,07,15,13.80
2013,07,05,07,16,13.80
2013,07,05,07,17,13.80
2013,07,05,07,18,13.80
2013,07,05,07,19,13.90
2013,07,05,07,20,13.90
2013,07,05,07,21,13.90
2013,07,05,07,22,14.00
2013,07,05,07,23,14.10
2013,07,05,07,24,14.20
2013,07,05,07,25,14.30
2013,07,05,07,26,14.40
2013,07,05,07,27,14.50
2013,07,05,07,28,14.60
2013,07,05,07,29,14.70
2013,07,05,07,30,14.70
2013,07,05,07,31,14.70
2013,07,05,07,32,14.70
2013,07,05,07,33,14.80
2013,07,05,07,34,14.80
2013,07,05,07,35,14.80
2013,07,05,07,36,14.90
2013,07,05,07,37,15.00
2013,07,05,07,38,15.10
2013,07,05,07,39,15.10
2013,07,05,07,40,15.20
2013,07,05,07,41,15.30
2013,07,05,07,42,15.30
2013,07,05,07,43,15.40
2013,07,05,07,44,15.50
2013,07,05,07,45,15.60
2013,07,05,07,46,15.60
2013,07,05,07,47,15.70
2013,07,05,07,48,15.70
2013,07,05,07,49,15.80
2013,07,05,07,50,15.80
2013,07,05,07,51,15.80
2013,07,05,07,52,15.80
2013,07,05,07,53,15.80
2013,07,05,07,54,15.90
2013,07,05,07,55,15.90
2013,07,05,07,56,16.00
2013,07,05,07,57,16.10
2013,07,05,07,58,16.10
2013,07,05,07,59,16.10
2013,07,05,08,00,16.10
2013,07,05,08,01,16.10
2013,07,05,08,02,16.10
2013,07,05,08,03,16.20
2013,07,05,08,04,16.30
2013,07,05,08,05,16.40
2013,07,05,08,06,16.40
2013,07,05,08,07,16.40
2013,07,05,08,08,16.40
2013,07,05,08,09,16.40
2013,07,05,08,10,16.40
2013,07,05,08,11,16.40
2013,07,05,08,12,16.40
2013,07,05,08,13,16.50
2013,07,05,08,14,16.50
2013,07,05,08,15,16.60
2013,07,05,08,16,16.70
2013,07,05,08,17,16.80
2013,07,05,08,18,16.80
2013,07,05,08,19,16.80
2013,07,05,08,20,16.90
2013,07,05,08,21,16.90
2013,07,05,08,22,16.80
2013,07,05,08,23,16.90
2013,07,05,08,24,16.80
2013,07,05,08,25,16.80
2013,07,05,08,26,16.80
2013,07,05,08,27,16.80
2013,07,05,08,28,16.80
2013,07,05,08,29,16.90
2013,07,05,08,30,17.00
2013,07,05,08,31,17.10
2013,07,05,08,32,17.20
2013,07,05,08,33,17.20
2013,07,05,08,34,17.20
2013,07,05,08,35,17.30
2013,07,05,08,36,17.30
2013,07,05,08,37,17.30
2013,07,05,08,38,17.40
2013,07,05,08,39,17.50
2013,07,05,08,40,17.60
2013,07,05,08,41,17.70
2013,07,05,08,42,17.80
2013,07,05,08,43,17.80
2013,07,05,08,44,17.80
2013,07,05,08,45,17.70
2013,07,05,08,46,17.70
2013,07,05,08,47,17.50
2013,07,05,08,48,17.40
2013,07,05,08,49,17.30
2013,07,05,08,50,17.20
2013,07,05,08,51,17.20
2013,07,05,08,52,17.20
2013,07,05,08,53,17.30
2013,07,05,08,54,17.40
2013,07,05,08,55,17.40
2013,07,05,08,56,17.40
2013,07,05,08,57,17.40
2013,07,05,08,58,17.30
2013,07,05,08,59,17.30
2013,07,05,09,00,17.40
2013,07,05,09,01,17.50
2013,07,05,09,02,17.60
2013,07,05,09,03,17.70
2013,07,05,09,04,17.70
2013,07,05,09,05,17.80
2013,07,05,09,06,17.90
2013,07,05,09,07,17.90
2013,07,05,09,08,18.00
2013,07,05,09,09,18.00
2013,07,05,09,10,18.00
2013,07,05,09,11,18.00
2013,07,05,09,12,17.90
2013,07,05,09,13,17.90
2013,07,05,09,14,17.80
2013,07,05,09,15,17.80
2013,07,05,09,16,17.90
2013,07,05,09,17,17.90
2013,07,05,09,18,18.00
2013,07,05,09,19,18.10
2013,07,05,09,20,18.00
2013,07,05,09,21,17.90
2013,07,05,09,22,17.80
2013,07,05,09,23,17.80
2013,07,05,09,24,17.80
2013,07,05,09,25,17.80
2013,07,05,09,26,17.80
2013,07,05,09,27,17.80
2013,07,05,09,28,17.70
2013,07,05,09,29,17.70
2013,07,05,09,30,17.70
2013,07,05,09,31,17.70
2013,07,05,09,32,17.60
2013,07,05,09,33,17.50
2013,07,05,09,34,17.50
2013,07,05,09,35,17.40
2013,07,05,09,36,17.40
2013,07,05,09,37,17.40
2013,07,05,09,38,17.30
2013,07,05,09,39,17.30
2013,07,05,09,40,17.30
2013,07,05,09,41,17.30
2013,07,05,09,42,17.30
2013,07,05,09,43,17.20
2013,07,05,09,44,17.20
2013,07,05,09,45,17.20
2013,07,05,09,46,17.20
2013,07,05,09,47,17.30
2013,07,05,09,48,17.30
2013,07,05,09,49,17.30
2013,07,05,09,50,17.30
2013,07,05,09,51,17.30
2013,07,05,09,52,17.30
2013,07,05,09,53,17.20
2013,07,05,09,54,17.20
2013,07,05,09,55,17.20
2013,07,05,09,56,17.20
2013,07,05,09,57,17.30
2013,07,05,09,58,17.40
2013,07,05,09,59,17.40
2013,07,05,10,00,17.50
2013,07,05,10,01,17.60
2013,07,05,10,02,17.50
2013,07,05,10,03,17.50
2013,07,05,10,04,17.40
2013,07,05,10,05,17.40
2013,07,05,10,06,17.50
2013,07,05,10,07,17.60
2013,07,05,10,08,17.60
2013,07,05,10,09,17.60
2013,07,05,10,10,17.50
2013,07,05,10,11,17.40
2013,07,05,10,12,17.30
2013,07,05,10,13,17.30
2013,07,05,10,14,17.30
2013,07,05,10,15,17.30
2013,07,05,10,16,17.30
2013,07,05,10,17,17.30
2013,07,05,10,18,17.30
2013,07,05,10,19,17.30
2013,07,05,10,20,17.30
2013,07,05,10,21,17.20
2013,07,05,10,22,17.20
2013,07,05,10,23,17.20
2013,07,05,10,24,17.20
2013,07,05,10,25,17.30
2013,07,05,10,26,17.30
2013,07,05,10,27,17.30
2013,07,05,10,28,17.40
2013,07,05,10,29,17.40
2013,07,05,10,30,17.40
2013,07,05,10,31,17.40
2013,07,05,10,32,17.50
2013,07,05,10,33,17.60
2013,07,05,10,34,17.70
2013,07,05,10,35,17.60
2013,07,05,10,36,17.50
2013,07,05,10,37,17.40
2013,07,05,10,38,17.40
2013,07,05,10,39,17.40
2013,07,05,10,40,17.40
2013,07,05,10,41,17.40
2013,07,05,10,42,17.40
2013,07,05,10,43,17.40
2013,07,05,10,44,17.30
2013,07,05,10,45,17.40
2013,07,05,10,46,17.40
2013,07,05,10,47,17.40
2013,07,05,10,48,17.30
2013,07,05,10,49,17.30
2013,07,05,10,50,17.30
2013,07,05,10,51,17.30
2013,07,05,10,52,17.30
2013,07,05,10,53,17.40
2013,07,05,10,54,17.50
2013,07,05,10,55,17.60
2013,07,05,10,56,17.60
2013,07,05,10,57,17.60
2013,07,05,10,58,17.60
2013,07,05,10,59,17.60
2013,07,05,11,00,17.60
2013,07,05,11,01,17.60
2013,07,05,11,02,17.60
2013,07,05,11,03,17.60
2013,07,05,11,04,17.60
2013,07,05,11,05,17.70
2013,07,05,11,06,17.70
2013,07,05,11,07,17.70
2013,07,05,11,08,17.70
2013,07,05,11,09,17.70
2013,07,05,11,10,17.60
2013,07,05,11,11,17.60
2013,07,05,11,12,17.60
2013,07,05,11,13,17.60
2013,07,05,11,14,17.60
2013,07,05,11,15,17.60
2013,07,05,11,16,17.50
2013,07,05,11,17,17.50
2013,07,05,11,18,17.50
2013,07,05,11,19,17.50
2013,07,05,11,20,17.50
2013,07,05,11,21,17.60
2013,07,05,11,22,17.60
2013,07,05,11,23,17.60
2013,07,05,11,24,17.70
2013,07,05,11,25,17.70
2013,07,05,11,26,17.80
2013,07,05,11,27,17.70
2013,07,05,11,28,17.70
2013,07,05,11,29,17.70
2013,07,05,11,30,17.70
2013,07,05,11,31,17.80
2013,07,05,11,32,17.90
2013,07,05,11,33,18.00
2013,07,05,11,34,18.00
2013,07,05,11,35,17.80
2013,07,05,11,36,17.70
2013,07,05,11,37,17.70
2013,07,05,11,38,17.70
2013,07,05,11,39,17.70
2013,07,05,11,40,17.80
2013,07,05,11,41,17.90
2013,07,05,11,42,18.00
2013,07,05,11,43,18.00
2013,07,05,11,44,18.10
2013,07,05,11,45,18.20
2013,07,05,11,46,18.30
2013,07,05,11,47,18.20
2013,07,05,11,48,18.10
2013,07,05,11,49,18.00
2013,07,05,11,50,17.90
2013,07,05,11,51,17.80
2013,07,05,11,52,17.80
2013,07,05,11,53,17.90
2013,07,05,11,54,17.90
2013,07,05,11,55,18.00
2013,07,05,11,56,18.10
2013,07,05,11,57,18.20
2013,07,05,11,58,18.30
2013,07,05,11,59,18.30
2013,07,05,12,00,18.20
2013,07,05,12,01,18.20
2013,07,05,12,02,18.20
2013,07,05,12,03,18.20
2013,07,05,12,04,18.20
2013,07,05,12,05,18.20
2013,07,05,12,06,18.20
2013,07,05,12,07,18.20
2013,07,05,12,08,18.20
2013,07,05,12,09,18.20
2013,07,05,12,10,18.20
2013,07,05,12,11,18.10
2013,07,05,12,12,18.10
2013,07,05,12,13,18.00
2013,07,05,12,14,18.00
2013,07,05,12,15,18.00
2013,07,05,12,16,18.00
2013,07,05,12,17,18.00
2013,07,05,12,18,18.00
2013,07,05,12,19,18.10
2013,07,05,12,20,18.20
2013,07,05,12,21,18.30
2013,07,05,12,22,18.30
2013,07,05,12,23,18.30
2013,07,05,12,24,18.40
2013,07,05,12,25,18.40
2013,07,05,12,26,18.40
2013,07,05,12,27,18.50
2013,07,05,12,28,18.60
2013,07,05,12,29,18.70
2013,07,05,12,30,18.80
2013,07,05,12,31,18.80
2013,07,05,12,32,18.70
2013,07,05,12,33,18.60
2013,07,05,12,34,18.50
2013,07,05,12,35,18.50
2013,07,05,12,36,18.50
2013,07,05,12,37,18.60
2013,07,05,12,38,18.70
2013,07,05,12,39,18.60
2013,07,05,12,40,18.50
2013,07,05,12,41,18.50
2013,07,05,12,42,18.40
2013,07,05,12,43,18.50
2013,07,05,12,44,18.50
2013,07,05,12,45,18.60
2013,07,05,12,46,18.60
2013,07,05,12,47,18.70
2013,07,05,12,48,18.80
2013,07,05,12,49,18.80
2013,07,05,12,50,18.90
2013,07,05,12,51,18.90
2013,07,05,12,52,18.90
2013,07,05,12,53,18.80
2013,07,05,12,54,18.80
2013,07,05,12,55,18.80
2013,07,05,12,56,18.80
2013,07,05,12,57,18.70
2013,07,05,12,58,18.60
2013,07,05,12,59,18.60
2013,07,05,13,00,18.70
2013,07,05,13,01,18.70
2013,07,05,13,02,18.70
2013,07,05,13,03,18.80
2013,07,05,13,04,18.80
2013,07,05,13,05,18.80
2013,07,05,13,06,18.80
2013,07,05,13,07,18.70
2013,07,05,13,08,18.60
2013,07,05,13,09,18.60
2013,07,05,13,10,18.70
2013,07,05,13,11,18.80
2013,07,05,13,12,18.80
2013,07,05,13,13,18.80
2013,07,05,13,14,18.80
2013,07,05,13,15,18.90
2013,07,05,13,16,19.00
2013,07,05,13,17,19.10
2013,07,05,13,18,19.20
2013,07,05,13,19,19.30
2013,07,05,13,20,19.50
2013,07,05,13,21,19.50
2013,07,05,13,22,19.60
2013,07,05,13,23,19.60
2013,07,05,13,24,19.60
2013,07,05,13,25,19.70
2013,07,05,13,26,19.70
2013,07,05,13,27,19.70
2013,07,05,13,28,19.70
2013,07,05,13,29,19.60
2013,07,05,13,30,19.60
2013,07,05,13,31,19.60
2013,07,05,13,32,19.60
2013,07,05,13,33,19.60
2013,07,05,13,34,19.60
2013,07,05,13,35,19.60
2013,07,05,13,36,19.60
2013,07,05,13,37,19.70
2013,07,05,13,38,19.70
2013,07,05,13,39,19.70
2013,07,05,13,40,19.80
2013,07,05,13,41,19.90
2013,07,05,13,42,20.10
2013,07,05,13,43,20.20
2013,07,05,13,44,20.30
2013,07,05,13,45,20.30
2013,07,05,13,46,20.30
2013,07,05,13,47,20.20
2013,07,05,13,48,20.10
2013,07,05,13,49,20.00
2013,07,05,13,50,20.00
2013,07,05,13,51,19.90
2013,07,05,13,52,19.80
2013,07,05,13,53,19.80
2013,07,05,13,54,19.80
2013,07,05,13,55,19.70
2013,07,05,13,56,19.70
2013,07,05,13,57,19.80
2013,07,05,13,58,19.80
2013,07,05,13,59,19.80
2013,07,05,14,00,19.80
2013,07,05,14,01,19.70
2013,07,05,14,02,19.70
2013,07,05,14,03,19.70
2013,07,05,14,04,19.60
2013,07,05,14,05,19.60
2013,07,05,14,06,19.60
2013,07,05,14,07,19.60
2013,07,05,14,08,19.70
2013,07,05,14,09,19.70
2013,07,05,14,10,19.70
2013,07,05,14,11,19.70
2013,07,05,14,12,19.70
2013,07,05,14,13,19.80
2013,07,05,14,14,19.80
2013,07,05,14,15,19.90
2013,07,05,14,16,19.80
2013,07,05,14,17,19.80
2013,07,05,14,18,19.90
2013,07,05,14,19,19.90
2013,07,05,14,20,19.90
2013,07,05,14,21,19.80
2013,07,05,14,22,19.90
2013,07,05,14,23,19.90
2013,07,05,14,24,19.90
2013,07,05,14,25,19.90
2013,07,05,14,26,19.90
2013,07,05,14,27,19.90
2013,07,05,14,28,19.90
2013,07,05,14,29,20.00
2013,07,05,14,30,20.10
2013,07,05,14,31,20.10
2013,07,05,14,32,20.10
2013,07,05,14,33,20.20
2013,07,05,14,34,20.20
2013,07,05,14,35,20.20
2013,07,05,14,36,20.20
2013,07,05,14,37,20.20
2013,07,05,14,38,20.20
2013,07,05,14,39,20.20
2013,07,05,14,40,20.20
2013,07,05,14,41,20.20
2013,07,05,14,42,20.20
2013,07,05,14,43,20.20
2013,07,05,14,44,20.30
2013,07,05,14,45,20.40
2013,07,05,14,46,20.50
2013,07,05,14,47,20.50
2013,07,05,14,48,20.50
2013,07,05,14,49,20.50
2013,07,05,14,50,20.60
2013,07,05,14,51,20.60
2013,07,05,14,52,20.70
2013,07,05,14,53,20.80
2013,07,05,14,54,20.90
2013,07,05,14,55,21.00
2013,07,05,14,56,21.10
2013,07,05,14,57,21.00
2013,07,05,14,58,20.90
2013,07,05,14,59,20.80
2013,07,05,15,00,20.80
2013,07,05,15,01,20.70
2013,07,05,15,02,20.70
2013,07,05,15,03,20.70
2013,07,05,15,04,20.70
2013,07,05,15,05,20.70
2013,07,05,15,06,20.70
2013,07,05,15,07,20.70
2013,07,05,15,08,20.80
2013,07,05,15,09,20.80
2013,07,05,15,10,20.80
2013,07,05,15,11,20.70
2013,07,05,15,12,20.60
2013,07,05,15,13,20.60
2013,07,05,15,14,20.60
2013,07,05,15,15,20.60
2013,07,05,15,16,20.60
2013,07,05,15,17,20.60
2013,07,05,15,18,20.50
2013,07,05,15,19,20.50
2013,07,05,15,20,20.40
2013,07,05,15,21,20.40
2013,07,05,15,22,20.30
2013,07,05,15,23,20.40
2013,07,05,15,24,20.40
2013,07,05,15,25,20.50
2013,07,05,15,26,20.60
2013,07,05,15,27,20.70
2013,07,05,15,28,20.70
2013,07,05,15,29,20.80
2013,07,05,15,30,21.00
2013,07,05,15,31,21.10
2013,07,05,15,32,21.10
2013,07,05,15,33,21.00
2013,07,05,15,34,21.00
2013,07,05,15,35,20.90
2013,07,05,15,36,20.90
2013,07,05,15,37,20.90
2013,07,05,15,38,20.90
2013,07,05,15,39,20.90
2013,07,05,15,40,20.90
2013,07,05,15,41,20.90
2013,07,05,15,42,20.90
2013,07,05,15,43,20.90
2013,07,05,15,44,20.90
2013,07,05,15,45,20.90
2013,07,05,15,46,20.90
2013,07,05,15,47,20.90
2013,07,05,15,48,21.00
2013,07,05,15,49,21.10
2013,07,05,15,50,21.10
2013,07,05,15,51,21.10
2013,07,05,15,52,21.10
2013,07,05,15,53,21.10
2013,07,05,15,54,21.10
2013,07,05,15,55,21.10
2013,07,05,15,56,21.10
2013,07,05,15,57,21.00
2013,07,05,15,58,21.00
2013,07,05,15,59,20.90
2013,07,05,16,00,20.90
2013,07,05,16,01,20.90
2013,07,05,16,02,20.90
2013,07,05,16,03,20.90
2013,07,05,16,04,21.00
2013,07,05,16,05,21.10
2013,07,05,16,06,21.30
2013,07,05,16,07,21.40
2013,07,05,16,08,21.50
2013,07,05,16,09,21.50
2013,07,05,16,10,21.60
2013,07,05,16,11,21.50
2013,07,05,16,12,21.50
2013,07,05,16,13,21.50
2013,07,05,16,14,21.50
2013,07,05,16,15,21.50
2013,07,05,16,16,21.40
2013,07,05,16,17,21.40
2013,07,05,16,18,21.40
2013,07,05,16,19,21.40
2013,07,05,16,20,21.30
2013,07,05,16,21,21.30
2013,07,05,16,22,21.40
2013,07,05,16,23,21.40
2013,07,05,16,24,21.50
2013,07,05,16,25,21.60
2013,07,05,16,26,21.60
2013,07,05,16,27,21.50
2013,07,05,16,28,21.40
2013,07,05,16,29,21.40
2013,07,05,16,30,21.30
2013,07,05,16,31,21.30
2013,07,05,16,32,21.20
2013,07,05,16,33,21.20
2013,07,05,16,34,21.10
2013,07,05,16,35,21.20
2013,07,05,16,36,21.20
2013,07,05,16,37,21.20
2013,07,05,16,38,21.20
2013,07,05,16,39,21.30
2013,07,05,16,40,21.30
2013,07,05,16,41,21.30
2013,07,05,16,42,21.30
2013,07,05,16,43,21.30
2013,07,05,16,44,21.30
2013,07,05,16,45,21.30
2013,07,05,16,46,21.30
2013,07,05,16,47,21.30
2013,07,05,16,48,21.30
2013,07,05,16,49,21.30
2013,07,05,16,50,21.30
2013,07,05,16,51,21.30
2013,07,05,16,52,21.30
2013,07,05,16,53,21.30
2013,07,05,16,54,21.30
2013,07,05,16,55,21.30
2013,07,05,16,56,21.30
2013,07,05,16,57,21.30
2013,07,05,16,58,21.40
2013,07,05,16,59,21.40
2013,07,05,17,00,21.40
2013,07,05,17,01,21.30
2013,07,05,17,02,21.30
2013,07,05,17,03,21.20
2013,07,05,17,04,21.20
2013,07,05,17,05,21.20
2013,07,05,17,06,21.20
2013,07,05,17,07,21.20
2013,07,05,17,08,21.20
2013,07,05,17,09,21.30
2013,07,05,17,10,21.30
2013,07,05,17,11,21.30
2013,07,05,17,12,21.30
2013,07,05,17,13,21.30
2013,07,05,17,14,21.30
2013,07,05,17,15,21.30
2013,07,05,17,16,21.30
2013,07,05,17,17,21.40
2013,07,05,17,18,21.40
2013,07,05,17,19,21.40